GW2100 Weather Reports


time (UTC)temp
C
wind
direction
speed
KPH
gust
KPH
rain 1hr
cm
rain 24hr
cm
rain mn
cm
humidity
%
barometer
mb
20260507230503 16 146 3.2 8.0 0.00 0.00 0.00 30 1010.1
20260507230004 16 134 3.2 12.9 0.00 0.00 0.00 29 1010.0
20260507225503 16 153 4.8 12.9 0.00 0.00 0.00 31 1009.9
20260507225003 16 124 6.4 12.9 0.00 0.00 0.00 31 1009.8
20260507224504 16 109 6.4 12.9 0.00 0.00 0.00 30 1009.8
20260507224004 16 73 6.4 12.9 0.00 0.00 0.00 29 1009.8
20260507223503 16 105 4.8 14.5 0.00 0.00 0.00 29 1009.7
20260507223003 17 147 6.4 14.5 0.00 0.00 0.00 28 1009.6
20260507222503 17 143 9.7 14.5 0.00 0.00 0.00 28 1009.5
20260507222003 17 113 9.7 14.5 0.00 0.00 0.00 27 1009.5
20260507221503 17 132 8.0 14.5 0.00 0.00 0.00 28 1009.6
20260507221003 17 99 3.2 16.1 0.00 0.00 0.00 27 1009.7
20260507220503 17 114 6.4 16.1 0.00 0.00 0.00 27 1009.7
20260507220003 17 117 9.7 16.1 0.00 0.00 0.00 27 1009.8
20260507215503 16 101 6.4 14.5 0.00 0.00 0.00 30 1009.9
20260507215003 16 139 4.8 14.5 0.00 0.00 0.00 30 1009.9
20260507214503 16 185 4.8 19.3 0.00 0.00 0.00 30 1010.0
20260507214003 16 177 8.0 20.9 0.00 0.00 0.00 29 1010.1
20260507213503 16 186 9.7 29.0 0.00 0.00 0.00 29 1010.1
20260507213003 16 179 14.5 29.0 0.00 0.00 0.00 28 1010.1
20260507212503 17 168 9.7 29.0 0.00 0.00 0.00 24 1010.1
20260507212002 16 181 6.4 14.5 0.00 0.00 0.00 25 1010.3
20260507211503 16 168 6.4 11.3 0.00 0.00 0.00 25 1010.4
20260507211003 17 118 3.2 12.9 0.00 0.00 0.00 25 1010.3
20260507210503 16 96 6.4 19.3 0.00 0.00 0.00 25 1010.3
20260507210003 16 126 6.4 19.3 0.00 0.00 0.00 24 1010.2
20260507205503 16 106 11.3 19.3 0.00 0.00 0.00 24 1010.3
20260507205003 16 146 6.4 14.5 0.00 0.00 0.00 25 1010.2
20260507204503 16 152 6.4 14.5 0.00 0.00 0.00 24 1010.2
20260507204003 16 124 11.3 14.5 0.00 0.00 0.00 24 1010.2
20260507203503 16 129 6.4 19.3 0.00 0.00 0.00 23 1010.2
20260507203003 16 106 8.0 19.3 0.00 0.00 0.00 23 1010.4
20260507202502 16 116 9.7 19.3 0.00 0.00 0.00 24 1010.4
20260507202003 16 107 11.3 20.9 0.00 0.00 0.00 23 1010.6
20260507201502 16 143 8.0 20.9 0.00 0.00 0.00 23 1010.6
20260507201003 16 156 11.3 20.9 0.00 0.00 0.00 23 1010.7
20260507200503 16 142 9.7 20.9 0.00 0.00 0.00 23 1010.7
20260507200002 16 139 9.7 16.1 0.00 0.00 0.00 22 1010.8
20260507195503 17 121 11.3 16.1 0.00 0.00 0.00 21 1010.9
20260507195003 16 182 8.0 16.1 0.00 0.00 0.00 21 1010.9
20260507194503 17 170 8.0 16.1 0.00 0.00 0.00 21 1010.8
20260507194003 17 147 9.7 16.1 0.00 0.00 0.00 21 1010.8
20260507193502 16 113 6.4 12.9 0.00 0.00 0.00 21 1011.0
20260507193003 16 141 6.4 12.9 0.00 0.00 0.00 22 1011.0
20260507192503 16 144 6.4 16.1 0.00 0.00 0.00 21 1011.0
20260507192003 16 103 4.8 16.1 0.00 0.00 0.00 21 1011.0
20260507191502 17 128 9.7 16.1 0.00 0.00 0.00 21 1011.1
20260507191003 16 110 8.0 16.1 0.00 0.00 0.00 21 1011.0
20260507190503 16 149 6.4 16.1 0.00 0.00 0.00 21 1011.1
20260507190004 16 128 6.4 12.9 0.00 0.00 0.00 21 1011.2
20260507185504 16 106 3.2 12.9 0.00 0.00 0.00 22 1011.2
20260507185004 15 91 3.2 11.3 0.00 0.00 0.00 22 1011.2
20260507184504 16 20 4.8 12.9 0.00 0.00 0.00 22 1011.3
20260507184004 15 52 6.4 14.5 0.00 0.00 0.00 23 1011.2
20260507183504 14 169 6.4 14.5 0.00 0.00 0.00 22 1011.1
20260507183004 14 139 6.4 14.5 0.00 0.00 0.00 22 1011.0
20260507182504 15 104 6.4 14.5 0.00 0.00 0.00 22 1011.1
20260507182004 15 95 8.0 14.5 0.00 0.00 0.00 22 1011.1
20260507181504 15 65 3.2 12.9 0.00 0.00 0.00 23 1011.2
20260507181004 13 71 3.2 12.9 0.00 0.00 0.00 23 1011.2
20260507180504 13 97 8.0 12.9 0.00 0.00 0.00 23 1011.3
20260507180004 13 180 1.6 14.5 0.00 0.00 0.00 24 1011.3
20260507175503 13 46 6.4 14.5 0.00 0.00 0.00 23 1011.4
20260507175004 13 357 8.0 16.1 0.00 0.00 0.00 23 1011.5
20260507174503 14 335 8.0 16.1 0.00 0.00 0.00 23 1011.6
20260507174004 14 3 8.0 16.1 0.00 0.00 0.00 23 1011.7
20260507173504 13 36 4.8 12.9 0.00 0.00 0.00 24 1011.7
20260507173004 13 19 6.4 14.5 0.00 0.00 0.00 25 1011.7
20260507172504 13 12 9.7 14.5 0.00 0.00 0.00 24 1011.7
20260507172004 13 30 9.7 14.5 0.00 0.00 0.00 25 1011.8
20260507171503 13 9 4.8 14.5 0.00 0.00 0.00 25 1011.8
20260507171004 13 38 9.7 19.3 0.00 0.00 0.00 25 1011.7
20260507170503 13 25 11.3 20.9 0.00 0.00 0.00 25 1011.6
20260507170004 13 25 11.3 20.9 0.00 0.00 0.00 25 1011.5
20260507165503 13 5 14.5 24.1 0.00 0.00 0.00 24 1011.6
20260507165003 13 8 12.9 25.7 0.00 0.00 0.00 25 1011.7
20260507164503 12 25 16.1 25.7 0.00 0.00 0.00 25 1011.6
20260507164004 12 24 17.7 25.7 0.00 0.00 0.00 25 1011.6
20260507163503 12 14 19.3 27.4 0.00 0.00 0.00 25 1011.5
20260507163003 13 4 17.7 29.0 0.00 0.00 0.00 24 1011.5
20260507162504 13 8 20.9 29.0 0.00 0.00 0.00 24 1011.5
20260507162004 13 11 22.5 29.0 0.00 0.00 0.00 24 1011.5
20260507161504 13 19 17.7 27.4 0.00 0.00 0.00 25 1011.4
20260507161003 13 27 17.7 27.4 0.00 0.00 0.00 25 1011.5
20260507160503 13 13 16.1 27.4 0.00 0.00 0.00 24 1011.4
20260507160004 13 15 16.1 25.7 0.00 0.00 0.00 25 1011.3
20260507155504 14 10 16.1 25.7 0.00 0.00 0.00 24 1011.4
20260507155003 14 16 17.7 25.7 0.00 0.00 0.00 23 1011.3
20260507154503 15 32 14.5 24.1 0.00 0.00 0.00 24 1011.3
20260507154004 13 19 12.9 24.1 0.00 0.00 0.00 24 1011.4
20260507153504 13 29 14.5 24.1 0.00 0.00 0.00 24 1011.4
20260507153003 13 29 14.5 24.1 0.00 0.00 0.00 24 1011.4
20260507152503 14 22 12.9 20.9 0.00 0.00 0.00 23 1011.4
20260507152004 13 38 9.7 20.9 0.00 0.00 0.00 25 1011.3
20260507151503 13 17 12.9 20.9 0.00 0.00 0.00 24 1011.4
20260507151003 13 24 11.3 19.3 0.00 0.00 0.00 25 1011.4
20260507150503 13 28 11.3 20.9 0.00 0.00 0.00 24 1011.5
20260507150006 13 18 11.3 20.9 0.00 0.00 0.00 24 1011.6
20260507145503 12 3 12.9 20.9 0.00 0.00 0.00 24 1011.7
20260507145003 12 15 14.5 19.3 0.00 0.00 0.00 24 1011.7
20260507144503 12 12 11.3 19.3 0.00 0.00 0.00 25 1011.7
20260507144004 12 28 11.3 16.1 0.00 0.00 0.00 25 1011.6
20260507143503 12 14 9.7 16.1 0.00 0.00 0.00 26 1011.6
20260507143004 12 357 9.7 16.1 0.00 0.00 0.00 26 1011.6
20260507142503 12 347 8.0 12.9 0.00 0.00 0.00 27 1011.6
20260507142004 12 6 8.0 11.3 0.00 0.00 0.00 27 1011.6
20260507141504 11 3 8.0 11.3 0.00 0.00 0.00 28 1011.6
20260507141004 11 354 4.8 9.7 0.00 0.00 0.00 28 1011.5
20260507140503 10 319 3.2 9.7 0.00 0.00 0.00 30 1011.4
20260507140003 10 318 6.4 9.7 0.00 0.00 0.00 29 1011.4
20260507135503 10 310 6.4 11.3 0.00 0.00 0.00 29 1011.4
20260507135003 10 294 6.4 11.3 0.00 0.00 0.00 30 1011.4
20260507134503 9 290 8.0 11.3 0.00 0.00 0.00 31 1011.3
20260507134003 9 308 8.0 11.3 0.00 0.00 0.00 31 1011.2
20260507133503 9 294 6.4 14.5 0.00 0.00 0.00 31 1011.2
20260507133003 8 289 8.0 14.5 0.00 0.00 0.00 31 1011.2
20260507132503 8 292 9.7 14.5 0.00 0.00 0.00 32 1011.2
20260507132003 8 293 9.7 12.9 0.00 0.00 0.00 31 1011.2
20260507131503 8 290 8.0 12.9 0.00 0.00 0.00 31 1011.1
20260507131003 8 289 8.0 14.5 0.00 0.00 0.00 32 1011.0
20260507130504 7 288 8.0 14.5 0.00 0.00 0.00 32 1010.9
20260507130003 7 288 9.7 14.5 0.00 0.00 0.00 32 1010.9
20260507125503 7 292 11.3 14.5 0.00 0.00 0.00 33 1010.9
20260507125003 7 289 9.7 16.1 0.00 0.00 0.00 33 1010.8
20260507124503 6 283 9.7 16.1 0.00 0.00 0.00 34 1010.8
20260507124003 6 288 11.3 19.3 0.00 0.00 0.00 34 1010.8
20260507123503 6 285 11.3 19.3 0.00 0.00 0.00 35 1010.7
20260507123003 6 291 12.9 19.3 0.00 0.00 0.00 36 1010.7
20260507122503 5 293 11.3 16.1 0.00 0.00 0.00 36 1010.5
20260507122004 5 293 11.3 14.5 0.00 0.00 0.00 37 1010.5
20260507121503 5 291 11.3 16.1 0.00 0.00 0.00 37 1010.5
20260507121003 5 280 11.3 19.3 0.00 0.00 0.00 37 1010.5
20260507120503 5 278 11.3 19.3 0.00 0.00 0.00 37 1010.5
20260507120004 5 278 12.9 19.3 0.00 0.00 0.00 37 1010.5
20260507115503 5 272 11.3 19.3 0.00 0.00 0.00 37 1010.4
20260507115003 5 273 11.3 19.3 0.00 0.00 0.00 37 1010.3
20260507114503 5 277 12.9 16.1 0.00 0.00 0.00 36 1010.3
20260507114003 5 278 11.3 16.1 0.00 0.00 0.00 36 1010.2
20260507113503 5 270 11.3 16.1 0.00 0.00 0.00 36 1010.1
20260507113003 5 266 9.7 16.1 0.00 0.00 0.00 36 1010.1
20260507112503 5 269 9.7 14.5 0.00 0.00 0.00 36 1010.0
20260507112003 5 279 9.7 12.9 0.00 0.00 0.00 35 1010.1
20260507111504 5 278 9.7 14.5 0.00 0.00 0.00 34 1010.0
20260507111003 6 266 9.7 14.5 0.00 0.00 0.00 33 1010.0
20260507110503 6 262 8.0 14.5 0.00 0.00 0.00 33 1010.0
20260507110003 6 270 9.7 12.9 0.00 0.00 0.00 33 1009.9
20260507105503 5 269 8.0 12.9 0.00 0.00 0.00 34 1009.8
20260507105003 5 266 8.0 12.9 0.00 0.00 0.00 34 1009.8
20260507104503 5 271 8.0 12.9 0.00 0.00 0.00 34 1009.7
20260507104003 5 274 8.0 12.9 0.00 0.00 0.00 34 1009.7
20260507103503 5 271 8.0 12.9 0.00 0.00 0.00 34 1009.7
20260507103003 6 266 8.0 12.9 0.00 0.00 0.00 34 1009.7
20260507102503 6 264 6.4 12.9 0.00 0.00 0.00 33 1009.6
20260507102003 6 271 8.0 12.9 0.00 0.00 0.00 33 1009.6
20260507101503 6 273 8.0 14.5 0.00 0.00 0.00 33 1009.7
20260507101003 6 275 8.0 14.5 0.00 0.00 0.00 33 1009.6
20260507100503 6 265 9.7 14.5 0.00 0.00 0.00 33 1009.7
20260507100003 6 264 8.0 14.5 0.00 0.00 0.00 32 1009.7
20260507095503 6 263 8.0 14.5 0.00 0.00 0.00 33 1009.7
20260507095003 5 266 8.0 14.5 0.00 0.00 0.00 34 1009.7
20260507094503 6 272 8.0 12.9 0.00 0.00 0.00 33 1009.8
20260507094003 6 270 8.0 14.5 0.00 0.00 0.00 33 1009.7
20260507093502 6 270 8.0 14.5 0.00 0.00 0.00 33 1009.7
20260507093003 6 271 8.0 14.5 0.00 0.00 0.00 33 1009.6
20260507092503 6 275 9.7 14.5 0.00 0.00 0.00 33 1009.6
20260507092002 5 273 9.7 14.5 0.00 0.00 0.00 33 1009.5
20260507091503 5 278 9.7 16.1 0.00 0.00 0.00 33 1009.5
20260507091002 5 280 11.3 16.1 0.00 0.00 0.00 33 1009.4
20260507090503 5 277 11.3 19.3 0.00 0.00 0.00 34 1009.4
20260507090002 5 280 12.9 19.3 0.00 0.00 0.00 34 1009.4
20260507085503 5 281 12.9 19.3 0.00 0.00 0.00 34 1009.4
20260507085003 5 280 12.9 19.3 0.00 0.00 0.00 34 1009.3
20260507084502 5 277 12.9 19.3 0.00 0.00 0.00 34 1009.3
20260507084003 5 279 11.3 16.1 0.00 0.00 0.00 34 1009.3
20260507083502 5 279 11.3 16.1 0.00 0.00 0.00 34 1009.3
20260507083005 5 280 11.3 16.1 0.00 0.00 0.00 34 1009.3
20260507082504 5 286 11.3 16.1 0.00 0.00 0.00 34 1009.4
20260507082004 5 289 9.7 12.9 0.00 0.00 0.00 34 1009.4
20260507081503 5 288 9.7 12.9 0.00 0.00 0.00 34 1009.5
20260507081004 5 286 9.7 12.9 0.00 0.00 0.00 34 1009.5
20260507080503 5 294 8.0 12.9 0.00 0.00 0.00 34 1009.6
20260507080004 5 286 8.0 11.3 0.00 0.00 0.00 34 1009.7
20260507075504 5 289 8.0 11.3 0.00 0.00 0.00 34 1009.8
20260507075004 5 287 6.4 12.9 0.00 0.00 0.00 34 1009.9
20260507074504 5 281 6.4 12.9 0.00 0.00 0.00 33 1009.9
20260507074003 6 270 8.0 12.9 0.00 0.00 0.00 33 1009.9
20260507073504 5 260 4.8 11.3 0.00 0.00 0.00 33 1009.9
20260507073004 5 271 4.8 11.3 0.00 0.00 0.00 33 1009.9
20260507072503 5 265 4.8 11.3 0.00 0.00 0.00 33 1009.9
20260507072004 5 270 1.6 8.0 0.00 0.00 0.00 35 1009.8
20260507071503 6 306 1.6 4.8 0.00 0.00 0.00 34 1009.9
20260507071003 6 241 3.2 4.8 0.00 0.00 0.00 32 1009.9
20260507070503 6 254 1.6 4.8 0.00 0.00 0.00 32 1009.9
20260507070008 6 288 1.6 4.8 0.00 0.00 0.00 33 1010.0
20260507065504 6 208 3.2 4.8 0.00 0.00 0.00 33 1010.0
20260507065004 6 191 3.2 4.8 0.00 0.00 0.00 33 1010.0
20260507064504 6 187 1.6 4.8 0.00 0.00 0.00 34 1010.1
20260507064004 6 228 1.6 3.2 0.00 0.00 0.00 33 1010.3
20260507063503 6 202 1.6 3.2 0.00 0.00 0.00 35 1010.3
20260507063004 6 204 1.6 8.0 0.00 0.00 0.00 36 1010.3
20260507062504 6 219 1.6 8.0 0.00 0.00 0.00 37 1010.4
20260507062004 6 277 3.2 8.0 0.00 0.00 0.00 36 1010.5
20260507061503 6 163 3.2 4.8 0.00 0.00 0.00 35 1010.5
20260507061004 6 178 1.6 3.2 0.00 0.00 0.00 34 1010.5
20260507060504 7 189 1.6 4.8 0.00 0.00 0.00 34 1010.6
20260507060004 7 211 0.0 4.8 0.00 0.00 0.00 34 1010.5
20260507055503 7 234 3.2 8.0 0.00 0.00 0.00 33 1010.6
20260507055003 7 267 3.2 8.0 0.00 0.00 0.00 34 1010.6
20260507054504 7 261 3.2 8.0 0.00 0.00 0.00 34 1010.6
20260507054004 6 274 4.8 8.0 0.00 0.00 0.00 35 1010.7
20260507053503 7 269 4.8 8.0 0.00 0.00 0.00 34 1010.6
20260507053004 7 242 3.2 9.7 0.00 0.00 0.00 34 1010.6
20260507052503 7 232 4.8 9.7 0.00 0.00 0.00 33 1010.7
20260507052004 7 224 4.8 9.7 0.00 0.00 0.00 34 1010.6
20260507051504 7 227 4.8 9.7 0.00 0.00 0.00 34 1010.7
20260507051004 7 217 3.2 8.0 0.00 0.00 0.00 33 1010.7
20260507050503 7 218 3.2 8.0 0.00 0.00 0.00 33 1010.7
20260507050003 7 225 1.6 9.7 0.00 0.00 0.00 33 1010.8
20260507045504 7 211 3.2 11.3 0.00 0.00 0.00 33 1010.9
20260507045004 7 198 6.4 11.3 0.00 0.00 0.00 33 1010.9
20260507044503 7 200 8.0 14.5 0.00 0.00 0.00 33 1010.9
20260507044004 7 199 8.0 14.5 0.00 0.00 0.00 33 1010.9
20260507043503 7 196 9.7 16.1 0.00 0.00 0.00 33 1011.0
20260507043004 7 192 12.9 16.1 0.00 0.00 0.00 33 1011.0
20260507042503 7 192 11.3 16.1 0.00 0.00 0.00 33 1011.0
20260507042005 7 190 11.3 14.5 0.00 0.00 0.00 33 1011.2
20260507041504 7 190 9.7 14.5 0.00 0.00 0.00 33 1011.2
20260507041003 7 190 9.7 11.3 0.00 0.00 0.00 33 1011.3
20260507040504 8 191 8.0 11.3 0.00 0.00 0.00 32 1011.4
20260507040004 7 185 9.7 12.9 0.00 0.00 0.00 33 1011.5
20260507035503 8 181 9.7 12.9 0.00 0.00 0.00 32 1011.5
20260507035003 8 187 8.0 12.9 0.00 0.00 0.00 31 1011.5
20260507034503 8 214 3.2 12.9 0.00 0.00 0.00 32 1011.7
20260507034004 8 193 9.7 12.9 0.00 0.00 0.00 32 1011.8
20260507033503 8 188 9.7 12.9 0.00 0.00 0.00 32 1011.8
20260507033003 8 197 6.4 11.3 0.00 0.00 0.00 32 1011.9
20260507032504 8 184 8.0 11.3 0.00 0.00 0.00 32 1011.9
20260507032003 8 186 6.4 11.3 0.00 0.00 0.00 32 1011.9
20260507031503 8 186 8.0 11.3 0.00 0.00 0.00 32 1012.0
20260507031003 8 193 8.0 11.3 0.00 0.00 0.00 31 1012.0
20260507030503 8 189 8.0 9.7 0.00 0.00 0.00 31 1012.1
20260507030004 8 183 6.4 9.7 0.00 0.00 0.00 31 1012.1
20260507025503 9 181 4.8 8.0 0.00 0.00 0.00 30 1012.1
20260507025003 9 178 4.8 8.0 0.00 0.00 0.00 30 1012.1
20260507024503 9 181 4.8 8.0 0.00 0.00 0.00 30 1012.1
20260507024004 9 186 6.4 8.0 0.00 0.00 0.00 30 1012.2
20260507023503 9 170 4.8 8.0 0.00 0.00 0.00 30 1012.2
20260507023004 9 161 4.8 9.7 0.00 0.00 0.00 30 1012.2
20260507022504 9 155 4.8 11.3 0.00 0.00 0.00 29 1012.2
20260507022003 9 153 6.4 11.3 0.00 0.00 0.00 29 1012.2
20260507021504 9 149 9.7 11.3 0.00 0.00 0.00 29 1012.2
20260507021003 9 144 9.7 11.3 0.00 0.00 0.00 29 1012.3
20260507020503 10 142 8.0 9.7 0.00 0.00 0.00 28 1012.3
20260507020004 10 142 8.0 9.7 0.00 0.00 0.00 28 1012.3
20260507015503 10 138 6.4 9.7 0.00 0.00 0.00 27 1012.3
20260507015004 10 135 6.4 9.7 0.00 0.00 0.00 27 1012.3
20260507014504 10 133 6.4 9.7 0.00 0.00 0.00 27 1012.3
20260507014003 10 124 8.0 9.7 0.00 0.00 0.00 28 1012.3
20260507013503 10 123 6.4 9.7 0.00 0.00 0.00 28 1012.3
20260507013003 10 134 6.4 11.3 0.00 0.00 0.00 27 1012.3
20260507012503 10 152 6.4 12.9 0.00 0.00 0.00 27 1012.3
20260507012003 10 142 8.0 12.9 0.00 0.00 0.00 27 1012.3
20260507011503 10 139 9.7 12.9 0.00 0.00 0.00 26 1012.3
20260507011004 10 133 8.0 14.5 0.00 0.00 0.00 26 1012.3
20260507010503 10 146 8.0 14.5 0.00 0.00 0.00 26 1012.3
20260507010004 10 141 11.3 14.5 0.00 0.00 0.00 27 1012.3
20260507005503 11 145 9.7 14.5 0.00 0.00 0.00 26 1012.3
20260507005004 11 147 9.7 16.1 0.00 0.00 0.00 26 1012.2
20260507004503 11 132 11.3 16.1 0.00 0.00 0.00 26 1012.2
20260507004003 11 119 8.0 16.1 0.00 0.00 0.00 26 1012.3
20260507003503 11 117 8.0 16.1 0.00 0.00 0.00 26 1012.4
20260507003003 11 138 11.3 19.3 0.00 0.00 0.00 26 1012.4
20260507002503 11 142 6.4 20.9 0.00 0.00 0.00 26 1012.5
20260507002003 11 133 14.5 20.9 0.00 0.00 0.00 25 1012.5
20260507001503 11 120 12.9 20.9 0.00 0.00 0.00 25 1012.6
20260507001003 11 116 9.7 16.1 0.00 0.00 0.00 25 1012.7
20260507000503 12 78 4.8 12.9 0.00 0.00 0.00 25 1012.8
20260507000003 11 64 4.8 14.5 0.00 0.00 0.00 25 1012.9
20260506235503 11 70 6.4 16.1 0.00 0.00 0.00 24 1012.9
20260506235003 11 55 8.0 16.1 0.00 0.00 0.00 24 1013.0
20260506234503 12 71 8.0 16.1 0.00 0.00 0.00 24 1013.0
20260506234003 12 90 8.0 12.9 0.00 0.00 0.00 25 1013.1
20260506233503 12 95 6.4 12.9 0.00 0.00 0.00 24 1013.2
20260506233003 12 52 4.8 12.9 0.00 0.00 0.00 24 1013.2
20260506232503 12 281 1.6 8.0 0.00 0.00 0.00 24 1013.3
20260506232003 12 309 3.2 11.3 0.00 0.00 0.00 24 1013.3
20260506231503 12 42 3.2 11.3 0.00 0.00 0.00 23 1013.3
20260506231003 12 2 6.4 11.3 0.00 0.00 0.00 23 1013.3